Regional Weather Roundup
Issued by NWS

Home | Current Version | Previous Version | Text Only | Print | Product List | Glossary Off
Versions: 1 2 3 4 5 6 7 8 9 10 11 12 13 14 15 16 17 18 19 20 21 22 23 24 25 26 27 28 29 30 31 32 33 34 35 36 37 38 39 40 41 42 43 44 45 46 47 48 49 50

000
ASUS43 KFSD 020102
RWRSD

WEATHER ROUNDUP FOR SOUTH DAKOTA
NATIONAL WEATHER SERVICE SIOUX FALLS SD
800 PM CDT SUN MAY 01 2016

NOTE: "FAIR" INDICATES FEW OR NO CLOUDS BELOW 12,000 FEET WITH NO
SIGNIFICANT WEATHER AND/OR OBSTRUCTIONS TO VISIBILITY.


SDZ001>005-009-010-012>017-020200-
NORTHWEST AND NORTH CENTRAL SOUTH DAKOTA

CITY           SKY/WX    TMP DP  RH WIND       PRES   REMARKS
BUFFALO          N/A     60  28  29 N10       30.14F
FAITH            N/A     57  31  37 N5        30.19F
MOBRIDGE       CLEAR     62  33  33 NW3       30.16S
$$

SDZ012>016-024>037-041>051-057-063-072>074-020200-
SOUTHWEST AND SOUTH CENTRAL SOUTH DAKOTA

CITY           SKY/WX    TMP DP  RH WIND       PRES   REMARKS
RAPID CTY ARPT CLEAR     54  31  41 N10       30.21S
PIERRE         CLEAR     57  35  43 N8        30.17F
CUSTER         PTCLDY    47  26  44 E10G18    30.22R
PHILIP         CLEAR     57  32  38 NE8       30.19S
PINE RIDGE     CLEAR     53  30  41 NE7       30.21S
WINNER         FAIR      55  34  45 N9        30.18S
$$

SDZ004>011-016>023-039-040-020200-
NORTHEAST SOUTH DAKOTA

CITY           SKY/WX    TMP DP  RH WIND       PRES   REMARKS
ABERDEEN       CLEAR     60  34  37 NW5       30.16F
WATERTOWN      CLEAR     56  32  40 N9        30.14F
BROOKINGS      CLEAR     55  32  41 N9        30.14S
SISSETON         N/A     60  29  30 NE8       30.14S
$$

SDZ017-020-022-023-036>040-048>070-020200-
SOUTHEAST SOUTH DAKOTA

CITY           SKY/WX    TMP DP  RH WIND       PRES   REMARKS
SIOUX FALLS    PTCLDY    51  37  58 NE7       30.13S
HURON          CLEAR     57  33  40 NE7       30.16S
MITCHELL       CLEAR     56  39  53 N7        30.16S
YANKTON        CLEAR     54  39  58 N5        30.14S
$$

ABBREVIATIONS USED IN REMARKS
   TC - TEMPERATURE IN CELSIUS
  WCI - WIND CHILL INDEX
   HX - HEAT INDEX
  VSB - VISIBILITY




USA.gov is the U.S. government's official web portal to all federal, state and local government web resources and services.